Location: D?nule?ti
(46.0500°N, 22.5833°E)
Time: 03:50:05
(UTC+00:00)

Daily predictions for brighter satellites

Satellite Brightness Start Highest point End
(mag) Time Altitude Azimuth Time Altitude Azimuth Time Altitude Azimuth
ATLAS 2AS CENTAUR R/B 4.0 00:35:05 40° NNE 00:35:05 40° NNE 00:39:38 10° NE
Lacrosse 5 3.9 01:28:12 22° NNE 01:28:12 22° NNE 01:30:59 10° NE
Cosmos 2082 Rocket 3.8 01:45:12 23° SE 01:47:30 31° ESE 01:52:29 10° NE
Cosmos 841 Rocket 4.4 01:52:35 42° NNE 01:52:35 42° NNE 01:56:02 10° NNE
ATLAS CENTAUR R/B 3.9 01:59:56 14° SE 02:01:00 15° ESE 02:03:28 10° ENE
USA 234 3.4 01:55:00 10° NE 02:01:30 64° SE 02:02:46 54° S
Cosmos 1570 Rocket 4.2 02:01:59 70° E 02:01:59 70° E 02:07:03 10° NNE
ARIANE 5 R/B 2.9 02:01:27 10° NNE 02:05:21 56° NNE 02:05:21 56° NNE
SL-4 R/B 3.3 02:09:46 40° NE 02:09:46 40° NE 02:12:41 10° ENE
GP-B 4.2 02:06:29 17° SSE 02:09:32 43° E 02:13:45 10° NNE
ATLAS 5 CENTAUR R/B 2.7 02:12:26 50° S 02:12:26 50° S 02:17:32 10° SSE
Meteor 1-12 Rocket 4.1 02:06:09 10° NNW 02:11:50 87° W 02:17:29 10° S
Cosmos 1833 Rocket 2.5 02:15:19 81° NW 02:15:19 81° NW 02:20:56 10° NNE
Cosmos 2369 3.8 02:10:54 17° NNW 02:15:24 75° ENE 02:21:08 10° SSE
Nadezhda 1 Rocket 4.1 02:12:39 22° S 02:16:46 72° E 02:22:49 10° NNE
ADEOS II 4.3 02:17:20 10° NNW 02:18:02 12° NNW 02:18:02 12° NNW
IDEFIX/ARIANE 42P 4.4 02:17:38 10° N 02:19:23 18° NNW 02:19:23 18° NNW
Cosmos 1610 Rocket 4.5 02:16:03 10° N 02:22:17 82° E 02:28:34 10° S
DELTA 2 R/B (1) 4.4 02:23:13 36° S 02:23:13 36° S 02:27:40 10° SE
CZ-4B R/B 3.5 02:18:08 10° NNE 02:23:27 85° ESE 02:24:47 53° S
ATLAS 2AS CENTAUR R/B 4.0 02:22:31 27° NW 02:24:06 29° NNW 02:30:32 10° NNE
Meteor 1-13 Rocket 4.0 02:24:23 70° W 02:24:37 72° WNW 02:30:17 10° N
IRIDIUM 106 4.3 02:23:45 37° S 02:25:53 84° E 02:31:09 10° N
Lacrosse 5 rocket 3.8 02:25:40 12° SSE 02:27:56 18° ESE 02:30:54 10° E
CZ-2C R/B 3.4 02:24:30 10° NNE 02:28:10 52° E 02:28:16 51° ESE
ALOS 2.4 02:23:56 10° NNE 02:28:38 74° ESE 02:30:05 44° S
Cosmos 2360 4.1 02:27:54 60° WNW 02:28:42 68° WSW 02:34:22 10° SSE
Cosmos 2184 Rocket 3.9 02:23:48 10° NNW 02:29:51 60° W 02:35:55 10° S
CZ-2C R/B 2.2 02:25:38 10° NNE 02:30:37 80° WNW 02:31:00 73° SW
Cosmos 1980 Rocket 2.3 02:25:33 10° NNW 02:31:17 77° ENE 02:36:59 10° SSE
Cosmos 1484 Rocket 3.7 02:32:03 10° NNE 02:35:40 45° E 02:38:14 18° SSE
Cosmos 1726 3.5 02:32:52 10° N 02:36:20 38° ENE 02:39:46 10° SSE
Meteor 1-23 Rocket 4.2 02:33:35 16° S 02:38:18 86° E 02:44:02 10° NNE
Cosmos 2298 Rocket 3.9 02:35:38 10° NNW 02:40:58 89° ENE 02:46:16 10° SSE
COSMOS 2455 4.4 02:41:27 10° S 02:46:48 35° ESE 02:52:12 10° NE
FENGYUN 3A 3.5 02:42:00 10° N 02:47:25 72° WNW 02:50:33 26° SSW
Cosmos 2151 Rocket 4.3 02:43:48 10° N 02:48:07 52° ENE 02:52:25 10° SSE
Cosmos 1697 Rocket 3.0 02:50:39 40° WSW 02:50:39 40° WSW 02:55:19 10° S
FALCON 9 DEB 3.5 02:50:49 53° E 02:50:49 53° E 02:53:16 10° ESE
Cosmos 1814 Rocket 4.4 02:50:38 42° WNW 02:51:03 43° WNW 02:56:10 10° N
FALCON 9 DEB 3.7 02:54:04 41° SE 02:54:04 41° SE 02:56:11 10° SE
GEOS 3 Rocket 4.3 02:48:18 10° NE 02:53:19 52° ESE 02:58:04 11° SSW
Cosmos 2154 Rocket 4.0 02:47:21 10° NNW 02:53:25 56° W 02:59:26 10° SSW
Sich 1 Rocket 3.4 02:50:36 10° NNW 02:55:00 79° W 02:59:25 10° S
FALCON 9 DEB 2.9 02:58:23 80° NW 02:58:33 87° NNE 03:01:56 10° ESE
FALCON 9 DEB 2.8 02:59:04 76° E 02:59:04 76° E 03:01:57 10° ESE
Cosmos 2278 3.6 02:53:42 10° NNW 02:59:28 87° WSW 03:05:11 10° SSE
Cosmos 1300 Rocket 3.4 02:55:27 10° NNW 02:59:45 63° W 03:04:03 10° S
Cosmos 1125 Rocket 3.3 02:57:58 10° NNW 03:03:10 72° WSW 03:08:20 10° SSE
COSMOS 2406 3.6 03:01:40 34° W 03:03:29 45° NW 03:09:02 10° NNE
CZ-4C R/B 4.4 02:59:34 10° NNW 03:05:30 30° NNE 03:12:21 10° E
NOSS 3-1 (C) 4.0 03:00:01 10° NW 03:07:32 72° SW 03:16:17 10° SSE
Lacrosse 5 3.3 03:07:24 14° NW 03:11:08 31° NNE 03:15:39 10° E
Meteor 2-10 3.9 03:06:50 10° NNW 03:11:47 59° W 03:16:46 10° S
Cosmos 2208 Rocket 4.5 03:10:36 31° W 03:12:09 39° WNW 03:17:04 10° N
Cosmos 2366 rocket 4.3 03:05:51 10° N 03:12:11 70° E 03:18:30 10° SSE
Cosmos 1461 2.9 03:14:58 29° SW 03:17:02 64° NW 03:21:15 10° NNE
SL-16 R/B 3.0 03:11:29 10° NNW 03:17:03 52° ENE 03:22:34 10° SE
PSLV R/B 3.5 03:13:53 10° N 03:18:13 62° WNW 03:22:31 10° SSW
Cosmos 1340 2.5 03:16:16 10° SSW 03:20:02 77° WNW 03:23:49 10° N
Cosmos 921 Rocket 3.9 03:19:50 28° WNW 03:20:15 28° WNW 03:24:00 10° N
Cosmos 2181 Rocket 4.0 03:16:37 10° S 03:22:44 84° E 03:28:58 10° N
Meteor 1-21 4.3 03:20:12 10° S 03:25:54 82° E 03:31:34 10° NNE
Cosmos 371 Rocket 4.4 03:21:35 10° N 03:26:19 46° ENE 03:30:59 10° SE
Cosmos 2082 Rocket 2.5 03:27:07 16° SW 03:31:24 46° WNW 03:36:54 10° NNE
Cosmos 1842 3.7 03:28:28 12° SW 03:31:51 39° WNW 03:35:34 10° N
Meteor 1-31 Rocket 3.5 03:30:47 10° NNE 03:34:33 55° E 03:38:16 10° S
Cosmos 2322 Rocket 3.0 03:29:57 10° NNW 03:35:31 55° ENE 03:41:03 10° SE
Cosmos 1626 4.3 03:35:02 10° SSE 03:38:17 30° E 03:41:33 10° NNE
ATLAS CENTAUR R/B 1.4 03:36:07 15° SW 03:39:18 60° NW 03:43:34 10° NNE
Cosmos 389 Rocket 2.4 03:40:24 10° N 03:43:54 89° E 03:47:25 10° S
USA 234 3.6 03:38:08 10° NE 03:44:26 52° NNW 03:50:07 13° W
ARIANE 5 R/B 4.1 03:42:19 10° NNW 03:44:51 14° WNW 03:45:41 14° WNW
Cosmos 2221 Rocket 4.2 03:41:44 10° SW 03:45:47 35° WNW 03:49:52 10° N
COSMO-SKYMED 1 2.5 03:42:23 10° SSE 03:46:43 82° WSW 03:51:06 10° NNW
Okean 2 Rocket 3.8 03:42:48 10° NNW 03:46:48 32° W 03:50:48 10° SSW
GP-B 4.4 03:44:05 11° SW 03:47:03 20° W 03:50:18 10° NNW
Cosmos 1707 2.7 03:43:14 10° SSW 03:47:04 58° W 03:50:57 10° N
SL-4 R/B 3.0 03:45:18 14° WNW 03:48:38 38° N 03:52:26 10° ENE
Cosmos 2360 Rocket 3.3 03:45:49 10° NNW 03:51:16 45° ENE 03:56:42 10° SE
Okean 2 3.6 03:48:35 10° SSW 03:52:31 46° WNW 03:56:28 10° N
Cosmos 1908 3.8 03:48:52 10° N 03:52:41 61° E 03:56:26 10° SSE
Cosmos 2218 Rocket 4.1 03:46:52 10° NNW 03:53:09 60° W 03:59:24 10° S
Cosmos 2219 Rocket 4.4 03:48:46 10° N 03:53:14 23° NE 03:57:41 10° E
ATLAS 5 CENTAUR R/B 4.0 03:54:03 12° W 03:54:59 12° WSW 03:57:24 10° SW
FALCON 9 DEB 4.3 03:54:47 15° W 03:56:13 21° SW 03:58:34 10° S
Cosmos 405 4.3 03:55:59 10° NW 03:58:31 19° W 04:01:02 10° SW
CZ-2C R/B 2.7 03:53:24 10° SSE 03:58:50 82° WSW 04:04:26 10° NNW
SJ-12 3.9 03:56:02 10° N 04:00:02 58° WNW 04:04:00 10° SSW
Cosmos 1833 Rocket 4.2 03:57:03 12° WNW 04:00:08 17° NW 04:03:48 10° N
SL-8 Rocket 4.3 03:54:20 10° NNW 04:00:12 44° W 04:06:00 10° SSW
Cosmos 1821 Rocket 4.3 03:54:05 10° N 04:00:23 75° E 04:06:32 10° SSE
YAOGAN 6 2.5 03:57:17 10° N 04:00:43 57° WNW 04:04:10 10° SSW
Cosmos 1378 Rocket 3.9 03:57:27 10° SSW 04:01:39 44° WNW 04:05:54 10° N
CZ-4B R/B 4.2 03:59:30 10° ESE 04:01:40 18° ENE 04:03:53 10° NNE
Cosmos 1455 Rocket 4.0 03:58:44 10° N 04:03:08 53° ENE 04:07:28 10° SSE
Cosmos 1470 3.8 04:02:15 10° NW 04:05:25 24° W 04:08:33 10° SW
ALOS 3.9 04:02:48 10° NNW 04:05:27 15° WNW 04:08:05 10° W
Lacrosse 5 rocket 1.4 04:02:19 10° SW 04:06:33 77° NW 04:11:02 10° NE
USA 229 DEB 4.1 03:59:25 10° NW 04:06:36 55° WSW 04:14:08 10° SSE
USA 229 4.1 03:59:31 10° NW 04:06:41 56° WSW 04:14:15 10° SSE
CZ-2C R/B 4.2 04:06:03 10° NNW 04:07:58 12° NW 04:09:51 10° WNW
Cosmos 1758 3.8 04:05:03 10° NNW 04:08:45 38° W 04:12:26 10° SSW
BREEZE-M DEB (TANK) 2.0 04:07:19 10° WSW 04:09:41 72° NNW 04:14:26 10° ENE
Cosmos 1484 Rocket 4.4 04:07:27 10° NNW 04:09:43 16° WNW 04:12:00 10° WSW
Cosmos 1726 3.7 04:09:00 10° NW 04:11:07 15° W 04:13:14 10° WSW
Cosmos 1975 Rocket 3.5 04:08:19 10° S 04:12:40 68° E 04:17:07 10° NNE
Cosmos 1980 Rocket 3.6 04:10:58 10° WNW 04:14:35 17° W 04:18:12 10° SW
Cosmos 2237 4.3 04:10:01 10° NNW 04:15:48 87° ENE 04:21:31 10° SSE
Meteor PRIRODA 4.2 04:12:25 10° NNE 04:16:08 64° ESE 04:19:48 10° S
H-2A R/B 3.2 04:14:16 10° N 04:17:51 38° WNW 04:21:22 10° SW
Cosmos 1953 2.3 04:16:03 10° NNW 04:20:06 72° W 04:24:06 10° S
Envisat 3.2 04:16:47 10° N 04:21:42 51° WNW 04:26:35 10° SW
